Location: Davayat
(45.9471°N, 3.1105°E)
Time: 18:12:01
(UTC+00:00)

Sich 1 - Pass Details

Date: 01 December 2020
Orbit: 593 x 626 km, 82.5° (Epoch: 17 January)

Event Time Altitude Azimuth Distance (km) Brightness Sun altitude
Rises 17:01:45 0° 346° (NNW) 2,898 6.4 -9.8°
Reaches altitude 10° 17:04:01 10° 342° (NNW) 1,982 5.6 -10.2°
Maximum altitude 17:08:17 53° 266° (W) 757 3.9 -10.9°
Drops below altitude 10° 17:12:28 10° 190° (S) 1,946 6.0 -11.5°
Sets 17:14:42 0° 185° (S) 2,839 6.8 -11.9°
